Погода в Ермоловке

Россия / Ульяновская область     54°00′15″N   46°52′28″E
В апреле 2022 года жителям России запретили посещать сайт meteo.paraplan.net по решению Генеральной прокуратуры. Аудитория сайта уменьшилась в 10 раз. Владельцы сайта не видят смысла в поддержке погодного сервера в таких условиях. Сайт будет закрыт в октябре.
темп.,
°C
ветер,
м/с
пор.,
м/с
влажн.,
%
обл.,
%
осадки,
мм/ч
давл.,
гПа
погр.,
м
30 сентября, пт
пт3001:00+10сз2296100 0.0 101633
04:00+10с1195100 0.0 101815
07:00+10в1297100 0.0 102067
10:00+12в228893 0.0 1021191
13:00+14в2173100 0.1 1021589
16:00+13вюв2484100 0.1 1022300
19:00+12юв2491100 0.0 1023158
22:00+12юв2591100 0.0 1023176
1 октября, сб
сб101:00+11ююв2695100 0.0 1022154
04:00+10ююв2696100 0.0 1023138
07:00+9ююв389655 0.0 1023171
10:00+14ю477987 0.0 1022395
13:00+18ю456444 0.0 1021886
16:00+17ююз3667100 0.0 1020875
19:00+15ююв3979100 0.0 1019299
22:00+14ю41283100 0.0 1018433
2 октября, вс
вс201:00+13ююв4138386 0.0 1016440
04:00+13ю5148380 0.0 1015490
07:00+13ю5158688 0.0 1013477
10:00+16ююз51274100 0.1 1013637
13:00+18ююз5972100 0.0 1012846
16:00+18юз4870100 0.0 1012713
19:00+15ю2591100 0.7 101297
22:00+14ююв31093100 1.5 1012296
3 октября, пн
пн301:00+14ююв31096100 1.1 1011336
04:00+14ююв5139597 2.4 1010468
07:00+14ююв51589100 0.0 1010428
10:00+15ююв61673100 0.0 1011717
13:00+17ююв71660100 0.0 10111022
16:00+17ююв81753100 0.0 10111212
19:00+16ююв81753100 0.0 10131340
22:00+16ююв81749100 0.0 10141253
4 октября, вт
вт401:00+15ююв71547100 0.0 10151223
04:00+12ююв51357100 0.4 10161000
07:00+12ююв51247100 0.1 10171050
10:00+11ю51256100 0.3 1018895
13:00+9ю51487100 1.1 1020625
16:00+9ю51280100 2.3 1022622
19:00+9ююв51184100 0.1 1023737
22:00+10ююв51283100 0.1 1024720